DELTA 1 DEB, 10227

Orbit data source: Space-Track

DELTA 1 DEB, 10227 is space debris in LEO originally from a launch on Thu, 14 Jul 1977 UTC launched from the Air Force Eastern Test Range (AFETR). Debris objects in space refer to the collection of defunct objects orbiting the Earth. Examples of debris include non-operational satellites, rocket bodies, and fragments generated from explosions, collisions, or faulty payload assembly.

Loading next visibility...
Identifier
10227, 1977-065BE
Orbit
LEO
Country
Flag of USUS
Related business
Manufacturer
Unknown
Mission
Spacecraft
Bus & Motor
Unknown
Mass
Unknown
Launch date (UTC)
1977-07-14 (49 years ago)
Launch vehicle
Unknown
Launch site
Air Force Eastern Test Range (AFETR)
Object type
Payload
Rocket body
Debris
Shape & HBR
Unknown shape, 0.6 m
Radar Cross Section
Medium (>0.1 m² and <1 m²)

Expand to show TLE details & history
Last TLE update: 8 hours ago

TLE from 8 hours ago
0 DELTA 1 DEB
1 10227U 77065BE  26263.14471414  .00001050  00000-0  31888-3 0  9999
2 10227  28.9526 193.8790 0671367 313.0123  41.6035 13.53374413387557
Epoch: 2026-09-20T03:28Z
TLE epoch observation values (Epoch: 2026-09-20T03:28:23.301Z)
Latitude
-0.00005°
Longitude
142.73872°
Altitude
700.94 km
Speed
7.686 km/s
True Right ascension
12h 55m 30s
True Declination
0° 00' 00"
Sunlit
Object was in daylight at epoch
Visualization orbit readout
Latitude
Unknown
Longitude
Unknown
Altitude
Unknown
Speed
Unknown
Apparent Right ascension
Unknown
Apparent Declination
Unknown
Sunlit
N/A
Visualization observer readout
Local Sidereal Time
04:42:46
Azimuth
Unknown
Elevation
Unknown
Doppler factor
Unknown
Orbital elements
Apogee altitude
1,563.364 km
Perigee altitude
564.118 km
Semi-major axis
7,441.878 km
Eccentricity
0.06714
Inclination
28.9526°
RAAN
193.879°
Arg. of periapsis
313.0123°
True anomaly
47.0444°
Mean anomaly
41.6035°
Eccentric anomaly
44.28956°
Mean motion
3.3808 °/min
Orbital period
106.48 mins
BSTAR
0.00031888
Loading maneuver chart data...
Computing Atmospheric mass density...

Documentation

Showing up to 5 results
|